Lapse_Rate
4.8 4.4 5.1 4.9 5.0 5.1 4.9 5.4 5.9 5.7 5.4 5.3 5.3 5.5 5.5 5.5 5.8 5.6 5.5 5.7 5.6 5.5 5.7 5.6 5.7 5.7 5.8
4.9 4.9 4.1 4.7 4.7 4.8 4.7 4.8 5.4 5.5 5.4 5.3 5.3 5.5 5.3 5.6 5.9 5.9 6.0 5.8 5.6 5.5 5.8 5.6 5.7 5.9 5.9
5.2 4.9 4.7 4.5 4.8 5.0 4.6 4.7 4.7 5.2 5.3 5.1 5.0 5.1 5.2 5.5 5.5 5.8 5.9 5.9 5.7 5.7 5.6 5.8 5.7 5.8 5.8
5.1 5.0 4.8 4.5 4.5 4.8 4.6 4.6 4.7 5.0 5.1 5.0 4.7 4.8 5.0 5.1 5.7 5.8 5.6 5.6 5.6 5.7 5.5 5.6 5.8 5.9 5.9
5.1 4.9 4.8 5.0 4.5 4.8 4.6 4.5 4.4 4.5 4.8 4.7 4.5 4.9 5.4 5.6 5.6 5.5 5.5 5.7 5.7 5.9 5.5 5.4 5.9 6.1 6.1
5.1 5.1 5.0 5.4 4.9 4.4 4.9 4.5 4.7 5.4 5.2 5.0 4.8 4.9 5.2 5.4 5.5 5.7 5.4 5.6 5.6 5.8 5.4 5.5 5.8 6.1 5.9
5.2 4.9 5.3 5.3 5.1 4.9 4.7 4.8 5.2 5.1 5.1 5.2 5.1 5.3 5.2 5.2 5.3 5.4 5.5 5.6 5.5 5.5 5.4 5.3 5.7 6.0 5.7
5.4 5.1 5.7 5.5 5.7 5.9 5.8 6.0 5.6 5.5 5.2 5.4 5.6 5.2 5.4 5.1 5.0 5.4 5.5 5.6 5.5 5.6 5.6 5.5 5.8 6.0 6.0
5.4 5.3 5.2 5.2 5.0 5.0 5.2 5.2 5.2 5.3 5.3 5.0 4.9 5.1 5.2 5.3 5.2 5.1 5.1 5.2 5.4 5.4 5.6 5.5 5.8 5.9 6.0
5.3 4.9 5.0 5.0 5.1 5.2 5.1 5.0 5.0 5.0 5.1 5.3 5.0 5.1 5.0 5.1 5.4 5.3 5.3 5.4 5.4 5.3 4.7 5.2 5.7 5.9 6.0
5.1 5.2 5.2 5.0 5.0 5.0 5.1 5.0 4.9 5.0 5.0 5.0 5.4 5.3 5.3 5.2 5.2 5.2 5.2 5.3 5.3 5.3 4.8 5.2 5.5 5.5 5.7
5.2 5.2 5.1 5.1 5.2 5.3 5.3 5.2 5.1 5.0 5.1 5.1 5.3 5.3 5.3 5.4 5.4 5.3 5.6 5.4 5.2 5.4 4.6 4.9 5.3 5.6 5.5
4.9 4.9 4.8 4.9 4.9 4.9 5.0 5.0 5.0 5.0 5.1 5.0 4.9 5.0 5.1 5.3 5.4 5.3 5.7 5.5 5.4 5.2 4.4 4.6 5.3 5.4 5.3
5.1 5.1 5.0 4.8 4.7 4.5 4.4 4.3 4.4 4.8 5.2 5.3 5.3 5.2 5.5 5.4 5.8 5.6 5.6 5.5 5.5 4.9 4.5 4.6 4.6 5.0 5.6
4.3 4.1 3.9 3.8 3.5 3.3 3.4 3.8 4.1 4.6 5.1 5.7 5.6 5.9 5.6 5.3 5.4 5.7 5.7 5.3 5.3 4.9 5.1 5.3 5.3 5.2 5.7
3.2 3.0 2.8 2.6 2.6 3.0 3.6 4.1 4.4 4.8 5.5 5.5 5.6 6.2 4.6 4.7 5.1 5.7 5.5 5.2 5.1 5.2 5.4 5.5 5.4 5.3 5.7
2.0 1.8 1.9 2.1 3.1 4.0 4.8 5.0 4.8 4.8 5.3 5.6 5.4 5.6 4.9 4.6 5.0 5.4 5.3 5.4 5.3 5.2 5.3 5.3 5.1 5.1 5.5
Wind_Speed
2 4 8 7 6 12 15 12 13 20 19 18 18 16 16 15 14 13 13 11 12 13 14 13 10 11 9
6 4 7 9 8 7 8 12 14 19 22 19 19 19 18 17 16 15 14 12 13 12 15 13 12 12 14
11 3 4 4 6 6 8 8 12 15 23 22 21 20 19 19 18 16 15 14 15 13 14 15 13 13 14
9 3 2 2 5 5 5 6 7 8 10 14 18 22 23 22 21 18 17 15 16 16 16 15 15 15 14
10 8 7 4 10 7 11 7 8 7 6 7 8 13 16 21 17 19 18 15 17 18 18 16 15 15 15
12 11 14 10 7 9 8 5 6 8 8 10 11 10 9 15 20 21 22 18 17 17 16 17 16 15 15
14 15 12 12 10 11 12 11 11 2 12 11 7 11 9 15 21 22 22 21 19 18 15 13 14 16 17
11 13 14 11 13 14 16 17 2 2 9 7 6 9 8 14 23 22 22 21 20 18 16 14 13 16 16
15 14 13 14 14 9 6 4 8 5 9 4 4 3 6 8 14 26 25 23 19 20 19 17 14 15 12
10 9 8 11 10 11 9 13 9 5 8 10 6 5 3 4 7 10 15 23 21 20 19 18 17 9 6
6 6 7 7 6 6 9 9 12 12 8 11 7 6 2 2 4 7 8 9 11 16 22 21 20 14 6
4 5 5 6 6 6 6 7 5 6 6 15 4 10 7 4 4 5 7 7 8 7 4 16 22 20 14
6 6 4 6 4 3 2 2 4 3 4 12 7 8 8 5 5 6 10 4 6 8 6 7 5 4 7
7 8 8 4 4 2 4 2 3 5 2 3 5 9 8 6 6 10 6 7 7 5 6 5 6 9 5
9 10 10 9 9 4 5 4 7 6 2 0 4 5 4 2 5 9 8 5 8 8 6 6 4 5 6
8 8 8 8 9 8 6 7 9 8 6 4 3 4 2 3 7 6 5 6 8 8 6 6 5 4 8
11 11 10 9 11 9 8 8 9 9 7 5 7 6 6 3 1 3 6 6 7 6 6 3 4 5 4
Wind_Direction
137 163 189 205 218 207 221 205 199 207 213 209 212 211 216 220 226 227 238 242 255 260 265 266 272 252 254
200 193 189 204 216 205 220 220 217 209 210 212 217 214 215 217 221 224 228 230 244 250 262 267 260 255 244
224 160 193 171 203 206 217 224 227 229 201 209 221 221 221 221 217 220 226 224 230 243 251 260 264 259 255
225 202 160 169 199 196 220 221 224 216 204 207 223 228 225 226 224 212 214 227 241 248 256 253 256 262 259
223 208 184 168 198 203 223 215 226 214 208 212 219 226 228 225 222 219 214 217 238 241 248 251 251 253 249
225 222 215 206 191 208 215 190 233 197 202 231 205 222 219 212 212 211 206 210 221 229 238 243 240 244 242
227 221 221 210 195 193 204 213 231 173 197 230 190 220 213 213 204 208 206 199 209 215 225 227 226 239 240
236 227 224 216 204 203 211 219 260 167 178 207 182 218 202 208 203 211 209 208 206 202 202 209 219 212 207
253 264 259 219 210 210 199 162 216 215 203 189 185 178 200 206 196 203 205 208 208 203 195 194 192 185 180
333 322 292 277 266 249 215 213 216 209 195 202 165 153 196 208 187 193 201 204 201 203 197 191 186 168 159
318 309 301 293 287 273 247 223 234 239 179 188 188 183 163 161 174 178 182 187 189 193 193 191 187 180 170
316 301 294 295 282 275 285 283 287 270 176 196 186 193 180 157 186 169 169 172 171 168 160 189 190 191 185
319 306 290 295 293 295 295 319 295 283 223 207 210 192 193 168 160 175 160 178 172 161 163 161 157 157 185
315 310 309 306 282 239 272 252 270 268 335 342 242 192 190 189 157 164 153 166 163 152 160 172 165 169 178
330 321 312 305 297 263 252 237 247 257 230 273 82 56 35 126 148 160 153 125 153 149 151 162 175 175 173
309 303 302 300 298 289 257 252 253 243 218 183 183 110 35 5 358 145 136 133 149 149 148 157 167 189 179
313 308 303 295 297 284 272 260 258 250 216 190 190 192 152 171 340 325 146 138 146 156 163 161 146 167 168